Probability
0 0 0 0 0 0 0 0 0 0 0 0 0 0 0 0 0 0 0 0 0 0 0 0 0 0 0 0 0 0 0 0 0 0 0 0 0 0 0 0 0 0 0 0
0 0 0 0 0 0 0 0 0 0 0 0 0 0 0 0 0 0 0 0 0 0 0 0 0 0 0 0 0 0 0 0 0 0 0 0 0 0 0 0 0 0 0 0
0 0 0 0 0 0 0 0 0 0 0 0 0 0 0 0 0 0 0 0 0 0 0 0 0 0 0 0 0 0 0 0 0 0 0 0 0 0 0 0 0 0 0 0
0 0 0 0 0 0 0 0 0 0 0 0 0 0 0 0 0 0 0 0 0 0 0 0 0 0 0 0 0 0 0 0 0 0 0 0 0 0 0 0 0 0 0 0
0 0 0 0 0 0 0 0 0 0 0 0 0 0 0 0 0 0 0 0 0 0 0 0 0 0 0 0 0 0 0 0 0 0 0 0 0 0 0 0 0 0 0 0
0 0 0 0 0 0 0 0 0 0 0 0 0 0 0 0 0 0 0 0 0 0 0 0 0 0 0 0 0 0 0 0 0 0 0 0 0 0 0 0 0 0 0 0
0 0 0 0 0 0 0 0 0 0 0 0 0 0 0 0 0 0 0 0 0 0 0 0 0 0 0 0 0 0 0 0 0 0 0 0 0 0 0 0 0 0 0 0
0 0 0 0 0 0 0 0 0 0 0 0 0 0 0 0 0 0 0 0 0 0 0 0 0 0 0 0 0 0 0 0 0 0 0 0 0 0 0 0 0 0 0 0
0 0 0 0 0 0 0 0 0 0 0 0 0 0 0 0 0 0 0 0 0 0 0 0 0 0 0 0 0 0 0 0 0 0 0 0 0 0 0 0 0 0 0 0
0 0 0 0 0 0 0 0 0 0 0 0 0 0 0 0 0 0 0 0 0 0 0 0 0 0 0 0 0 0 0 0 0 0 0 0 0 0 0 0 0 0 0 0
0 0 0 0 0 0 0 0 0 0 0 0 0 0 0 0 0 0 0 0 0 0 0 0 0 0 0 0 0 0 0 0 0 0 0 0 0 0 0 0 0 0 0 0
0 0 0 0 0 0 0 0 0 0 0 0 0 0 0 0 0 0 0 0 0 0 0 0 0 0 0 0 0 0 0 0 0 0 0 0 0 0 0 0 0 0 0 0
0 0 0 0 0 0 0 0 0 0 0 0 0 0 0 0 0 0 0 0 0 0 0 0 0 0 0 0 0 0 0 0 0 0 0 0 0 0 0 0 0 0 0 0
0 0 0 0 0 0 0 0 0 0 0 0 0 0 0 0 0 0 0 0 0 0 0 0 0 0 0 0 0 0 0 0 0 0 0 0 0 0 0 0 0 0 0 0
0 0 0 0 0 0 0 0 0 0 0 0 0 0 0 0 0 0 0 0 0 0 0 0 0 0 0 0 0 0 0 0 0 0 0 0 0 0 0 0 0 0 0 0
0 0 0 0 0 0 0 0 0 0 0 0 0 0 0 0 0 0 0 0 0 0 0 0 0 0 0 0 0 0 0 0 0 0 0 0 0 0 0 0 0 0 0 0
0 0 0 0 0 0 0 0 0 0 0 0 0 0 0 0 0 0 0 0 0 0 0 0 0 0 0 0 0 0 0 0 0 0 0 0 0 0 0 0 0 0 0 0
0 0 0 0 0 0 0 0 0 0 0 0 0 0 0 0 0 0 0 0 0 0 0 0 0 0 0 0 0 0 0 0 0 0 0 0 0 0 0 0 0 0 0 0
0 0 0 0 0 0 0 0 0 0 0 0 0 0 0 0 0 0 0 0 0 0 0 0 0 0 0 0 0 0 0 0 0 0 0 0 0 0 0 0 0 0 0 0
0 0 0 0 0 0 0 0 0 0 0 0 0 0 0 0 0 0 0 0 0 0 0 0 0 0 0 0 0 0 0 0 0 0 0 0 0 0 0 0 0 0 0 0
0 0 0 0 0 0 0 0 0 0 0 0 0 0 0 0 0 0 0 0 0 0 0 0 0 0 0 0 0 0 0 0 0 0 0 0 0 0 0 0 0 0 0 0
0 0 0 0 0 0 0 0 0 0 0 0 0 0 0 0 0 0 0 0 0 0 0 0 0 0 0 0 0 0 0 0 0 0 0 0 0 0 0 0 0 0 0 0
0 0 0 0 0 0 0 0 0 0 0 0 0 0 0 0 0 0 0 0 0 0 0 0 0 0 0 0 0 0 0 0 0 0 0 0 0 0 0 0 0 0 0 0
0 0 0 0 0 0 0 0 0 0 0 0 0 0 0 0 0 0 0 0 0 0 0 0 0 0 0 0 0 0 0 0 0 0 0 0 0 0 0 0 0 0 0 0
0 0 0 0 0 0 0 0 0 0 0 0 0 0 0 0 0 0 0 0 0 0 0 0 0 0 0 0 0 0 0 0 0 0 0 0 0 0 0 0 0 0 0 0
0 0 0 0 0 0 0 0 0 0 0 0 0 0 0 0 0 0 0 0 0 0 0 0 0 0 0 0 0 0 0 0 0 0 0 0 0 0 0 0 0 0 0 0
Wind_Speed
1 3 5 7 7 3 4 3 4 4 2 2 6 8 9 6 4 5 5 5 4 5 4 2 1 1 1 1 1 2 2 1 2 1 1 1 1 1 0 0 1 1 1 1
2 4 5 2 3 2 2 2 4 3 1 2 5 9 8 6 6 6 6 5 5 3 2 2 1 0 1 1 1 2 2 2 2 2 1 1 0 0 1 1 1 1 1 1
6 3 2 3 3 4 4 5 5 4 3 2 4 8 5 5 3 3 3 4 3 3 3 2 0 1 1 1 1 2 2 2 2 1 1 1 1 1 0 1 1 1 1 1
4 3 2 3 3 5 6 4 3 2 1 3 1 6 7 4 4 4 4 3 3 3 2 2 1 1 1 2 1 1 1 1 2 2 2 2 1 1 2 2 2 2 1 1
3 2 2 3 4 4 3 2 2 2 2 3 2 4 9 2 5 6 4 4 4 3 3 2 2 2 1 1 0 0 1 1 1 2 2 2 1 1 1 1 1 1 1 1
2 1 2 3 1 3 3 3 3 2 2 5 6 5 9 4 6 4 4 3 3 2 2 1 1 1 1 1 1 1 1 1 1 1 1 2 1 0 0 1 1 2 2 1
3 2 1 1 2 1 3 4 2 3 1 7 3 5 11 5 4 4 4 4 3 2 1 1 0 1 1 1 1 1 2 1 1 1 1 1 1 1 2 1 1 2 2 2
2 4 3 1 3 4 4 5 6 5 5 4 2 8 8 3 2 2 2 2 1 1 1 1 0 1 0 1 1 1 1 1 1 1 0 0 0 1 1 2 2 2 2 2
3 4 1 1 1 5 4 4 3 4 0 3 6 7 8 1 1 1 1 0 1 1 1 1 0 0 0 1 0 0 1 1 1 1 1 1 1 1 2 2 2 2 2 2
3 2 3 2 0 0 2 4 3 4 3 4 6 5 5 3 3 2 2 2 2 1 1 0 0 0 0 0 0 1 1 1 1 1 1 1 1 1 1 1 2 2 3 2
2 2 2 1 4 5 3 3 3 3 3 5 4 7 4 4 3 4 3 3 2 2 1 1 0 1 1 1 1 1 1 1 1 2 2 2 2 2 2 2 2 3 3 3
2 3 2 4 2 1 3 5 6 4 4 4 3 8 1 2 2 2 2 2 1 1 0 0 0 1 1 1 1 1 1 1 2 2 2 2 3 2 2 3 3 3 3 3
3 3 1 4 2 1 2 2 3 3 3 4 5 8 1 1 1 0 1 1 0 0 0 1 1 1 1 1 1 2 2 2 2 2 2 3 3 3 3 3 3 3 3 3
2 3 5 7 4 3 3 3 3 4 5 6 9 9 5 3 2 2 1 1 0 1 0 0 1 1 1 1 1 1 2 2 3 3 2 3 3 4 4 4 4 3 3 4
2 3 3 4 3 2 4 6 6 8 8 9 9 9 9 5 3 3 1 0 0 1 1 1 1 1 1 2 2 2 2 2 3 3 3 3 4 4 4 4 4 4 4 4
2 2 0 3 3 3 6 7 8 9 7 8 8 11 6 3 1 1 1 1 1 2 2 2 2 2 2 3 3 3 3 3 3 2 3 4 4 4 4 4 4 4 4 4
2 4 2 3 3 3 8 9 10 7 7 7 11 11 2 2 3 3 3 2 3 3 2 2 2 2 3 3 3 3 3 2 2 3 3 4 4 4 5 5 4 4 5 5
5 4 2 1 2 7 8 2 6 7 7 8 7 5 3 4 3 2 2 2 3 2 2 2 2 3 3 2 2 2 2 2 2 3 4 4 4 5 5 5 5 5 5 4
4 6 4 3 3 9 9 3 4 6 7 7 9 8 4 2 1 3 2 2 3 2 2 2 2 2 2 2 2 2 2 2 3 3 4 4 4 5 5 5 6 5 5 5
1 3 4 4 4 9 7 2 2 2 7 5 6 7 3 2 2 5 1 1 1 1 1 1 2 2 2 2 2 1 2 2 3 4 5 5 5 5 5 6 6 5 5 5
3 2 4 5 6 11 6 2 3 4 7 3 5 5 5 6 5 2 0 1 1 1 2 2 1 2 2 2 2 2 2 3 4 5 5 5 5 5 5 5 5 5 5 4
9 7 7 5 6 12 4 5 7 7 1 1 3 3 4 4 2 1 1 1 1 2 2 2 2 2 3 2 2 2 3 4 4 4 5 5 5 5 4 5 5 5 4 4
9 10 8 11 10 5 6 7 5 2 3 3 3 3 3 3 2 2 1 1 1 1 2 2 2 2 3 3 2 2 4 4 4 4 4 5 5 4 4 4 4 4 4 3
5 2 4 6 9 6 5 4 3 3 4 3 2 3 3 4 3 2 2 1 1 1 2 2 2 2 3 3 3 3 3 4 3 4 4 4 4 4 4 4 3 3 3 4
7 6 4 7 7 4 5 6 5 4 3 2 2 2 3 4 3 3 2 1 1 1 2 2 1 2 3 3 3 3 3 3 3 3 4 4 4 4 4 4 4 4 4 4
7 9 9 9 7 6 6 4 4 4 4 4 3 2 1 3 3 2 2 1 1 1 1 2 2 2 3 3 3 3 3 2 2 3 3 3 3 3 3 4 5 7 7 9
Wind_Direction
78 107 203 210 204 198 165 179 232 254 272 252 253 266 273 275 259 259 262 261 257 258 269 274 236 212 142 141 155 171 163 163 141 142 164 193 241 259 284 291 334 338 344 0
89 228 228 187 174 182 181 216 253 286 310 252 277 274 269 253 241 238 241 246 251 268 307 325 333 63 143 178 186 186 183 169 169 184 186 198 225 248 262 310 324 318 322 320
191 235 208 164 163 190 223 218 230 254 320 315 316 296 270 261 250 258 247 238 239 232 251 263 252 215 203 218 217 214 205 186 178 162 112 71 52 28 6 307 292 289 288 284
216 249 168 169 203 191 239 228 205 218 296 293 4 290 277 257 275 261 252 248 250 248 239 239 237 253 251 257 254 221 193 183 170 154 157 156 191 231 254 270 274 284 275 285
228 211 184 204 220 191 202 153 163 194 200 284 259 250 280 270 263 259 250 245 240 235 223 223 226 225 254 300 330 280 130 140 156 161 177 181 207 273 313 319 299 296 294 289
261 239 208 204 198 167 133 71 52 56 95 262 229 208 273 233 233 252 246 241 237 240 240 235 257 65 42 31 38 47 91 78 108 140 155 174 186 208 335 326 314 312 318 310
304 275 239 139 112 77 124 106 30 348 310 249 205 213 252 247 230 229 236 248 248 237 211 193 79 62 47 43 44 46 70 47 48 114 150 196 202 205 223 259 277 300 308 300
213 264 216 180 174 179 194 166 172 203 229 271 228 233 254 257 255 259 249 234 227 235 203 193 200 154 142 66 54 59 61 38 26 56 300 275 254 248 266 268 274 267 273 275
187 259 329 251 231 151 162 201 174 133 89 276 259 273 292 262 282 279 292 208 227 229 207 193 177 137 124 96 58 79 73 39 18 5 355 348 326 294 283 286 280 279 289 293
160 248 294 297 60 52 166 151 128 151 179 251 279 266 257 264 258 277 275 248 246 251 221 208 230 30 37 42 29 57 77 61 4 9 356 341 307 288 299 309 303 301 297 299
149 173 297 312 201 195 148 162 160 162 178 183 255 267 235 225 220 221 244 237 219 223 220 219 311 35 52 37 41 44 40 25 11 358 348 345 331 331 332 320 310 307 306 303
159 138 242 252 259 258 200 190 166 179 229 208 225 267 296 220 229 205 225 234 224 222 228 196 93 62 41 24 12 11 11 0 344 341 346 339 338 344 341 327 322 320 313 306
151 132 29 335 332 340 258 233 199 159 151 186 204 259 322 41 41 226 218 262 270 302 356 52 66 56 12 352 354 355 356 344 343 348 346 340 337 336 324 316 320 321 313 308
120 165 190 211 229 194 235 244 191 164 194 218 226 252 286 300 292 285 282 272 322 292 281 340 336 318 323 334 340 341 338 341 344 343 336 327 323 319 314 314 319 317 314 311
113 210 234 259 278 240 237 236 207 208 212 216 236 240 259 266 260 263 256 188 19 325 327 306 300 309 321 333 330 328 328 339 339 335 327 318 323 323 322 322 323 321 319 313
119 181 191 289 295 274 268 253 230 233 234 241 262 266 259 258 254 269 258 254 272 279 288 307 322 322 315 317 318 323 325 332 337 326 321 328 332 331 328 326 325 323 320 318
161 142 147 268 315 344 270 229 208 215 214 207 238 254 270 263 244 237 236 239 253 268 288 298 295 293 300 305 309 302 315 332 336 327 333 336 335 330 324 324 323 318 314 314
161 147 154 217 53 242 248 200 196 215 240 225 243 258 238 238 249 241 223 229 257 278 290 294 294 296 297 299 310 324 337 336 331 334 336 336 334 326 324 322 317 314 312 306
177 155 147 157 230 273 290 256 184 202 257 229 235 254 264 283 309 267 232 221 235 247 260 273 281 289 308 319 330 347 345 338 334 331 325 323 322 318 318 314 312 312 309 305
104 141 146 162 198 240 253 248 203 140 272 243 212 234 231 148 235 256 239 262 273 298 319 326 333 340 340 342 359 351 334 328 319 319 316 315 313 307 304 304 306 308 304 302
148 162 188 195 226 257 253 225 133 175 252 249 199 210 190 200 225 243 333 322 334 352 346 357 4 351 339 355 9 336 324 312 317 324 320 317 312 307 304 306 309 310 309 310
179 179 194 176 214 251 210 153 190 220 242 213 208 204 201 221 240 251 298 322 357 2 360 8 9 348 352 5 8 333 318 324 333 328 321 317 315 315 315 314 315 316 313 311
204 194 190 196 217 236 178 199 219 201 212 224 214 217 196 211 221 229 254 287 334 349 350 0 2 344 350 360 356 318 323 340 335 328 322 318 321 321 320 316 316 318 318 314
239 212 200 240 251 242 231 242 251 231 232 238 218 204 193 208 214 220 227 247 299 330 339 348 354 336 333 345 345 330 334 342 334 322 322 324 326 326 327 321 314 310 307 307
209 180 206 246 262 282 254 229 231 234 234 242 228 203 201 199 210 207 218 231 258 309 334 344 332 312 320 336 339 341 344 346 337 326 324 327 328 326 324 321 307 303 292 291
193 186 193 228 219 212 239 224 204 205 224 224 214 219 204 188 200 199 212 224 257 298 329 332 325 319 321 330 329 336 342 346 342 331 330 326 325 324 324 322 321 317 315 317